User: anonymous   Login
Location: Charlottesville
(38.0290°N, 78.4770°W)
Time: 15:46:07
(UTC-05:00)
Language:

Envisat - Orbit

View from above orbital plane
View from above orbital plane
View from above satellite
View from above satellite

Ground track
Ground track

The orbit data is extracted from the following two-line orbital elements,

1 27386U 02009A   17348.40560287 -.00000020  00000-0  69980-5 0  9992
2 27386  98.2094  25.9431 0001515  82.2679 277.8677 14.37910659826971
Epoch (UTC): 14 December 2017 09:44:04
Eccentricity: 0.0001515
inclination: 98.2094°
perigee height: 764 km
apogee height: 766 km
right ascension of ascending node: 25.9431°
argument of perigee: 82.2679°
revolutions per day: 14.37910659
mean anomaly at epoch: 277.8677°
orbit number at epoch: 82697

The dashed part of the orbit path shows where the satellite is in the earth's shadow,  

DLR